Lid_Strength_Index
3 3 3 3 3 4 3 3 3 3 3 3 3 3 3 3 3 5 6 4 1 -1 0 4 5 6 7 9 7 7 10 12 11 11 10 8 9 7 7 8 8 6 5 3 2
3 3 3 4 4 3 3 3 3 3 3 3 3 3 3 4 6 6 3 -1 -1 -1 5 6 7 6 8 9 10 10 12 10 8 8 9 8 7 7 6 7 8 7 5 3 3
3 4 4 4 4 3 3 3 3 3 3 3 3 3 3 4 7 6 -1 -1 0 1 3 5 5 6 9 9 9 10 12 9 8 7 6 7 7 6 7 8 8 8 6 4 3
4 4 4 4 4 3 3 3 3 3 3 3 2 2 3 5 12 6 -2 -2 0 3 4 5 7 9 11 11 9 11 9 9 8 7 7 7 6 7 6 7 6 6 5 6 4
4 4 4 4 4 3 3 3 3 3 3 3 2 3 5 7 9 3 -2 -1 1 3 5 7 7 8 11 9 9 10 9 8 8 8 8 7 8 7 7 5 5 5 5 6 7
4 5 5 4 4 4 3 3 3 3 3 2 2 3 5 11 6 5 5 4 3 6 6 7 8 7 8 9 9 8 8 8 8 8 8 9 8 7 6 5 5 6 6 6 6
4 5 5 4 4 3 3 3 4 3 3 2 2 3 7 11 6 6 6 7 6 6 7 6 5 7 7 9 7 8 10 9 8 8 9 8 10 9 7 6 6 6 6 6 6
4 5 5 4 4 4 4 4 4 3 3 2 2 4 9 7 7 7 6 6 5 5 6 6 5 6 7 7 7 9 10 13 9 8 7 8 12 8 7 7 7 6 5 5 5
5 5 5 4 4 4 4 4 3 3 2 1 4 5 11 4 7 6 6 6 6 5 5 4 6 7 6 8 10 11 13 12 10 7 7 8 11 8 7 7 7 7 6 6 6
5 5 5 5 4 4 5 4 2 3 3 2 3 8 9 9 6 5 5 5 6 6 6 7 8 9 10 10 14 13 13 12 12 9 8 9 9 8 7 7 8 7 6 6 5
5 5 5 5 5 5 6 6 9 9 8 10 9 8 8 6 5 6 4 4 5 7 10 8 10 11 10 9 9 10 11 11 10 8 9 11 10 8 7 7 7 7 7 7 6
5 5 5 5 5 5 7 9 9 8 11 6 7 7 6 6 7 6 4 7 8 11 9 10 12 8 8 8 9 10 12 12 10 8 9 11 11 9 8 7 7 6 6 7 6
5 5 5 5 5 6 7 8 7 6 11 7 7 8 8 7 7 6 5 7 9 10 10 12 10 7 8 9 10 10 12 12 12 10 10 10 12 10 9 8 6 6 6 6 6
5 5 5 6 7 7 9 7 6 6 13 10 9 8 7 7 7 4 4 6 8 10 10 11 8 8 9 9 9 12 9 9 10 11 15 9 16 12 10 10 8 7 7 8 7
5 5 5 6 8 8 8 7 5 7 18 10 9 7 7 8 6 5 3 6 9 9 9 11 10 10 10 9 8 10 8 9 10 12 13 13 14 13 11 11 9 8 7 8 7
5 5 6 5 7 6 7 7 6 12 17 11 9 10 9 7 6 5 6 5 6 9 8 9 7 8 9 7 7 7 9 10 10 12 17 13 13 14 13 12 10 8 8 7 7
5 6 7 6 8 6 7 7 13 17 11 13 12 10 9 8 7 7 8 9 12 14 13 11 11 8 7 9 8 9 12 19 20 19 19 12 13 13 10 8 8 8 7 7 7
6 6 5 5 5 6 7 11 16 13 13 11 11 10 10 8 8 8 9 11 9 10 13 15 17 11 8 9 11 11 12 18 23 21 19 13 17 13 8 7 7 6 6 6 6
7 5 4 5 5 6 9 15 16 13 11 12 11 11 10 8 9 9 10 10 9 10 15 15 15 9 8 8 8 12 15 11 17 16 19 16 13 10 9 9 8 8 7 6 6
8 6 4 5 5 7 11 12 12 11 10 10 13 11 13 10 11 11 10 8 9 8 9 12 16 10 9 9 8 10 9 16 16 21 22 16 16 17 12 11 10 9 8 7 6
8 6 5 4 5 9 14 13 11 9 10 11 12 12 11 11 10 11 10 8 7 9 9 11 14 13 11 11 13 13 14 14 14 16 21 21 18 11 11 10 10 9 8 7 6
8 9 5 5 11 10 13 11 10 10 8 10 10 10 10 10 11 11 11 9 6 8 11 10 12 16 14 10 9 10 12 13 18 19 16 17 17 10 10 9 8 9 7 7 6
10 8 5 6 14 13 10 10 9 10 10 10 10 9 9 11 14 11 10 7 6 8 10 10 15 18 16 13 10 12 11 11 12 14 17 19 17 9 8 8 8 8 7 7 6
9 11 9 9 9 11 12 11 10 8 9 9 10 9 10 10 10 11 10 7 6 7 7 9 13 16 18 15 13 15 13 12 13 17 17 16 15 11 10 10 9 9 8 7 6
8 11 9 13 12 11 10 10 11 11 9 10 10 10 11 14 11 11 9 9 7 7 9 11 15 14 13 12 12 13 13 13 14 13 16 14 14 11 11 11 9 9 9 8 7
9 12 10 11 10 10 10 11 10 11 11 11 11 9 10 12 11 12 10 10 11 9 11 10 14 14 15 12 12 14 13 13 14 14 14 14 14 11 10 10 11 10 10 9 7
7 7 10 11 11 12 11 10 10 10 9 9 10 10 10 8 7 7 7 8 8 10 11 11 13 15 17 13 13 16 14 14 14 13 14 17 15 12 13 12 12 11 11 10 8